Location: Owatonna
(44.0840°N, 93.2260°W)
Time: 16:37:05
(UTC-06:00)

Tiangong 1 - Visible Passes

Search period start: 09 February 2016 00:00
Search period end: 19 February 2016 00:00
Orbit: 383 x 398 km, 42.8° (Epoch: 09 February)

Date Brightness Start Highest point End Pass type
(mag) Time Alt. Az. Time Alt. Az. Time Alt. Az.
09 Feb 3.6 19:05:23 10° WSW 19:07:44 19° SSW 19:09:49 11° SSE visible
10 Feb 3.1 18:07:31 10° W 18:10:21 27° SSW 18:13:09 10° SE visible
11 Feb 4.3 18:48:18 10° SW 18:49:12 11° SW 18:50:05 10° SSW visible
